Douglas, WY

12:46 PM MDT on May 25, 2017 (GMT -0600)
Converse County

Weather History for KDGW - August, 2013

Change the Weather History Date:

Sunday, August 4, 2013

  Actual Average Record
Temperature  
Mean Temperature 73 °F 72 °F  
Max Temperature 91 °F 89 °F 97 °F (2000)
Min Temperature 54 °F 55 °F 44 °F (2012)
Degree Days  
Heating Degree Days 0 0  
Month to date heating degree days 0 0  
Since 1 June heating degree days 56 125  
Since 1 July heating degree days 0 15  
Cooling Degree Days 8 7  
Month to date cooling degree days 30 29  
Year to date cooling degree days 430 311  
Since 1 June cooling degree days 414 305  
Growing Degree Days 22 (Base 50)    
Moisture  
Dew Point 51 °F    
Average Humidity 55    
Maximum Humidity 93    
Minimum Humidity 17    
Precipitation  
Precipitation T in 0.04 in 0.12 in (2010)
Month to date precipitation 0.07 0.14  
Year to date precipitation 5.62 9.05  
Sea Level Pressure  
Sea Level Pressure 29.95 in    
Wind  
Wind Speed 8 mph (ENE)    
Max Wind Speed 21 mph    
Max Gust Speed 29 mph    
Visibility 10 miles    
Events Thunderstorm    
T = Trace of Precipitation, MM = Missing Value Source: NWS Daily Summary

Daily Weather History Graph

Daily Weather History Graph

Search for Another Location

Airport or City:

Trip Planner

Search our weather history database for the weather conditions in past years. The results will help you decide how hot, cold, wet, or windy it might be!

Date:

Astronomy

Aug. 04, 2013 Rise Set
Actual Time 5:56 AM MDT 8:18 PM MDT
Civil Twilight 5:24 AM MDT 8:49 PM MDT
Nautical Twilight 4:45 AM MDT 9:28 PM MDT
Astronomical Twilight 4:01 AM MDT 10:12 PM MDT
Moon 3:59 AM MDT (8/4) 6:42 PM MDT (8/4)
Length of Visible Light 15h 25m
Length of Day
14h 21m
Waning Crescent, 4% of the Moon is Illuminated
Aug 4
Waning Crescent
Aug 6
New
Aug 14
First Quarter
Aug 20
Full
Aug 28
Last Quarter

Hourly Weather History & Observations

Time (MDT) Temp. Heat Index Dew Point Humidity Pressure Visibility Wind Dir Wind Speed Gust Speed Precip Events Conditions
12:53 AM 63.0 °F - 59.0 °F 87% 29.91 in 10.0 mi ESE 11.5 mph - N/A   Clear
1:53 AM 60.1 °F - 55.9 °F 86% 29.91 in 10.0 mi SE 4.6 mph - N/A   Clear
2:53 AM 57.9 °F - 55.0 °F 90% 29.91 in 10.0 mi SSE 5.8 mph - N/A   Clear
3:53 AM 55.9 °F - 54.0 °F 93% 29.93 in 10.0 mi Calm Calm - N/A   Clear
4:53 AM 55.0 °F - 53.1 °F 93% 29.96 in 10.0 mi NW 6.9 mph - N/A   Clear
5:53 AM 55.0 °F - 53.1 °F 93% 30.00 in 10.0 mi NW 3.5 mph - N/A   Clear
6:53 AM 59.0 °F - 54.0 °F 83% 30.01 in 10.0 mi NNW 5.8 mph - N/A   Clear
7:53 AM 64.9 °F - 57.0 °F 75% 30.01 in 10.0 mi NW 9.2 mph - N/A   Clear
8:53 AM 71.1 °F - 57.9 °F 63% 30.01 in 10.0 mi WNW 12.7 mph - N/A   Clear
9:16 AM 71.6 °F - 57.2 °F 60% 30.18 in 10.0 mi NW 8.1 mph - N/A   Mostly Cloudy
9:41 AM 71.6 °F - 59.0 °F 64% 30.18 in 10.0 mi North 10.4 mph - N/A   Scattered Clouds
9:53 AM 72.0 °F - 60.1 °F 66% 30.01 in 10.0 mi North 8.1 mph - N/A   Clear
10:53 AM 75.9 °F - 59.0 °F 56% 29.99 in 10.0 mi North 3.5 mph - N/A   Clear
11:53 AM 78.1 °F - 59.0 °F 52% 29.97 in 10.0 mi Calm Calm - N/A   Clear
12:53 PM 84.0 °F 83.0 °F 55.9 °F 38% 29.94 in 10.0 mi Variable 5.8 mph - N/A   Clear
1:53 PM 88.0 °F - 46.0 °F 23% 29.91 in 10.0 mi NW 8.1 mph - N/A   Clear
2:53 PM 89.1 °F - 45.0 °F 22% 29.89 in 10.0 mi Variable 3.5 mph - N/A   Clear
3:53 PM 88.0 °F - 39.0 °F 18% 29.88 in 10.0 mi SW 4.6 mph - N/A   Clear
4:53 PM 89.1 °F - 39.9 °F 18% 29.86 in 10.0 mi Variable 3.5 mph - 0.00 in   Clear
5:53 PM 89.1 °F - 42.1 °F 19% 29.85 in 10.0 mi ESE 6.9 mph - N/A   Clear
6:53 PM 87.1 °F - 42.1 °F 21% 29.85 in 10.0 mi East 9.2 mph 19.6 mph N/A   Clear
7:36 PM 82.4 °F - 41.0 °F 23% 30.04 in 10.0 mi ENE 15.0 mph - N/A Thunderstorm Scattered Clouds
7:53 PM 82.0 °F - 39.9 °F 22% 29.84 in 10.0 mi East 17.3 mph 23.0 mph N/A Thunderstorm Partly Cloudy
8:17 PM 78.8 °F - 48.2 °F 34% 30.04 in 10.0 mi East 16.1 mph 24.2 mph N/A   Clear
8:53 PM 73.0 °F - 50.0 °F 44% 29.87 in 10.0 mi ESE 18.4 mph 26.5 mph N/A   Clear
9:53 PM 71.1 °F - 52.0 °F 51% 29.88 in 10.0 mi SE 17.3 mph 25.3 mph N/A   Clear
10:53 PM 69.1 °F - 51.1 °F 53% 29.88 in 10.0 mi ESE 10.4 mph - N/A   Clear
11:53 PM 69.1 °F - 50.0 °F 51% 29.87 in 10.0 mi SSE 10.4 mph - N/A   Clear